Hourly Data Report for September 06, 2017

All times are specified in Local Standard Time (LST). Add 1 hour to adjust for Daylight Saving Time where and when it is observed.

ARVIAT A
NUNAVUT

61°05'38.000" N
94°04'18.000" W
10.40 m
2300427
71174
YEK

Download Data

Hourly Data (September 2017)
Hourly Data Report for September 6, 2017
Temp Definition
°C
Dew Point Temp Definition
°C
Rel Hum Definition
%
Wind Dir Definition
10's deg

Wind Spd Definition
km/h
Visibility Definition
km
Stn Press Definition
kPa
Hmdx Definition


Wind Chill Definition


Weather Definition


TIME
00:00 Legend Double Dagger 8.4 6.0 85 1 15 16.1 101.56     LegendNANA
01:00 Legend Double Dagger 6.3 5.3 93 35 11 16.1 101.57     LegendNANA
02:00 Legend Double Dagger 6.1 5.4 95 34 11 16.1 101.56     LegendNANA
03:00 Legend Double Dagger 5.7 4.7 93 33 13 16.1 101.55     LegendNANA
04:00 Legend Double Dagger 5.4 4.4 93 34 13 16.1 101.56     LegendNANA
05:00 Legend Double Dagger 5.0 4.1 94 34 13 16.1 101.57     LegendNANA
06:00 Legend Double Dagger 4.5 3.8 95 35 13 16.1 101.58     LegendNANA
07:00 Legend Double Dagger 4.1 3.5 96 34 11 16.1 101.59     LegendNANA
08:00 Legend Double Dagger 4.7 4.1 96 35 9 16.1 101.60     LegendNANA
09:00 Legend Double Dagger 6.9 4.9 87 1 13 16.1 101.60     LegendNANA
10:00 Legend Double Dagger 7.9 5.1 83 2 13 16.1 101.59     LegendNANA
11:00 Legend Double Dagger 8.5 4.9 78 4 15 16.1 101.62     LegendNANA
12:00 Legend Double Dagger 8.9 3.6 69 5 15 16.1 101.62     LegendNANA
13:00 Legend Double Dagger 8.7 5.7 81 6 17 16.1 101.65     LegendNANA
14:00 Legend Double Dagger 8.5 4.4 75 7 13 16.1 101.67     LegendNANA
15:00 Legend Double Dagger 8.8 4.7 76 11 13 16.1 101.68     LegendNANA
16:00 Legend Double Dagger 8.6 5.4 80 11 17 16.1 101.70     LegendNANA
17:00 Legend Double Dagger 8.3 5.9 85 13 18 16.1 101.71     LegendNANA
18:00 Legend Double Dagger 7.4 4.9 84 13 18 16.1 101.74     LegendNANA
19:00 Legend Double Dagger 7.0 4.7 85 13 17 16.1 101.78     LegendNANA
20:00 Legend Double Dagger 6.7 4.4 85 13 17 16.1 101.80     LegendNANA
21:00 Legend Double Dagger 6.6 4.2 84 14 17 16.1 101.81     LegendNANA
22:00 Legend Double Dagger 6.4 4.1 85 14 21 16.1 101.80     LegendNANA
23:00 Legend Double Dagger 5.9 3.9 87 15 21 16.1 101.81     LegendNANA

Notes on Data Quality.

Legend

  • E = Estimated
  • M = Missing
  • NA = Not Available
  • ‡ = Partner data that is not subject to review by the National Climate Archives
Date modified: